Winston-Salem, NC

5:22 AM EDT on May 30, 2017 (GMT -0400)
Smith Reynolds

Weather History for KINT - September, 2013

Change the Weather History Date:

Saturday, September 21, 2013

  Actual Average Record
Temperature  
Mean Temperature 68 °F -  
Max Temperature 75 °F 75 °F 89 °F (1965)
Min Temperature 64 °F 57 °F 41 °F (1981)
Cooling Degree Days 4    
Growing Degree Days 18 (Base 50)    
Moisture  
Dew Point 64 °F    
Average Humidity 89    
Maximum Humidity 96    
Minimum Humidity 76    
Precipitation  
Precipitation 0.84 in - - ()
Sea Level Pressure  
Sea Level Pressure 29.84 in    
Wind  
Wind Speed 4 mph (SSW)    
Max Wind Speed 9 mph    
Max Gust Speed -    
Visibility 5 miles    
Events Rain    
Averages and records for this station are not official NWS values.
T = Trace of Precipitation, MM = Missing Value Source: NWS Daily Summary

Daily Weather History Graph

Daily Weather History Graph

Search for Another Location

Airport or City:

Trip Planner

Search our weather history database for the weather conditions in past years. The results will help you decide how hot, cold, wet, or windy it might be!

Date:

Astronomy

Sep. 21, 2013 Rise Set
Actual Time 7:08 AM EDT 7:18 PM EDT
Civil Twilight 6:42 AM EDT 7:44 PM EDT
Nautical Twilight 6:12 AM EDT 8:14 PM EDT
Astronomical Twilight 5:42 AM EDT 8:44 PM EDT
Moon 8:34 PM EDT (9/21) 9:19 AM EDT (9/21)
Length of Visible Light 13h 01m
Length of Day
12h 10m
Waning Gibbous, 94% of the Moon is Illuminated
Sep 21
Waning Gibbous
Sep 26
Last Quarter
Oct 4
New
Oct 11
First Quarter
Oct 18
Full

Hourly Weather History & Observations

Time (EDT) Temp. Dew Point Humidity Pressure Visibility Wind Dir Wind Speed Gust Speed Precip Events Conditions
12:54 AM 66.9 °F 64.9 °F 93% 29.96 in 3.0 mi ESE 3.5 mph - N/A   Overcast
1:54 AM 66.9 °F 64.9 °F 93% 29.94 in 3.0 mi SE 3.5 mph - N/A   Overcast
2:33 AM 68.0 °F 64.4 °F 88% 29.97 in 5.0 mi Calm Calm - N/A   Overcast
2:54 AM 68.0 °F 64.9 °F 90% 29.93 in 6.0 mi SSE 4.6 mph - N/A   Overcast
3:54 AM 68.0 °F 64.9 °F 90% 29.92 in 6.0 mi Calm Calm - N/A   Overcast
4:54 AM 66.9 °F 64.9 °F 93% 29.90 in 4.0 mi SE 3.5 mph - N/A   Overcast
5:54 AM 66.9 °F 64.9 °F 93% 29.88 in 5.0 mi Calm Calm - N/A   Overcast
6:28 AM 66.2 °F 64.4 °F 94% 29.90 in 2.5 mi SSE 4.6 mph - N/A   Overcast
6:54 AM 66.0 °F 64.9 °F 96% 29.87 in 2.0 mi SE 3.5 mph - N/A   Overcast
7:11 AM 66.2 °F 64.4 °F 94% 29.90 in 1.8 mi Variable 3.5 mph - N/A   Overcast
7:50 AM 66.2 °F 64.4 °F 94% 29.90 in 0.8 mi SE 4.6 mph - N/A   Overcast
7:54 AM 66.0 °F 64.9 °F 96% 29.87 in 0.8 mi SSE 3.5 mph - N/A   Overcast
8:05 AM 66.2 °F 64.4 °F 94% 29.90 in 1.0 mi South 5.8 mph - N/A   Overcast
8:54 AM 66.9 °F 64.9 °F 93% 29.87 in 1.5 mi South 4.6 mph - N/A   Overcast
9:17 AM 66.2 °F 64.4 °F 94% 29.90 in 2.5 mi South 3.5 mph - N/A   Overcast
9:32 AM 68.0 °F 64.4 °F 88% 29.90 in 3.0 mi Calm Calm - N/A   Overcast
9:54 AM 69.1 °F 64.9 °F 87% 29.88 in 4.0 mi South 6.9 mph - N/A   Overcast
10:14 AM 69.8 °F 64.4 °F 83% 29.90 in 5.0 mi South 4.6 mph - N/A   Overcast
10:54 AM 70.0 °F 66.0 °F 87% 29.86 in 6.0 mi South 6.9 mph - N/A   Overcast
11:54 AM 72.0 °F 66.0 °F 81% 29.84 in 9.0 mi SSW 6.9 mph - N/A   Overcast
12:24 PM 73.4 °F 66.2 °F 78% 29.85 in 10.0 mi Variable 5.8 mph - N/A   Overcast
12:32 PM 73.4 °F 66.2 °F 78% 29.85 in 10.0 mi SSW 5.8 mph - N/A   Overcast
12:39 PM 73.4 °F 66.2 °F 78% 29.85 in 10.0 mi South 6.9 mph - N/A   Overcast
12:54 PM 73.9 °F 66.9 °F 79% 29.81 in 10.0 mi Variable 6.9 mph - N/A   Overcast
1:54 PM 73.9 °F 66.0 °F 76% 29.79 in 10.0 mi Variable 6.9 mph - 0.00 in   Overcast
2:11 PM 73.4 °F 66.2 °F 78% 29.81 in 10.0 mi SSW 8.1 mph - 0.00 in Rain Light Rain
2:54 PM 72.0 °F 66.9 °F 84% 29.78 in 7.0 mi SSW 8.1 mph - 0.02 in Rain Light Rain
3:54 PM 71.1 °F 68.0 °F 90% 29.75 in 7.0 mi South 4.6 mph - 0.01 in Rain Light Rain
4:54 PM 71.1 °F 68.0 °F 90% 29.73 in 7.0 mi South 4.6 mph - 0.02 in Rain Light Rain
5:54 PM 71.1 °F 66.9 °F 87% 29.73 in 7.0 mi SSW 8.1 mph - 0.01 in Rain Light Rain
6:37 PM 69.8 °F 64.4 °F 83% 29.78 in 2.0 mi WNW 6.9 mph - 0.05 in Rain Rain
6:48 PM 66.2 °F 62.6 °F 88% 29.78 in 3.0 mi West 8.1 mph - 0.10 in Rain Rain
6:54 PM 66.9 °F 63.0 °F 87% 29.75 in 4.0 mi Calm Calm - 0.13 in Rain Rain
7:04 PM 66.2 °F 62.6 °F 88% 29.78 in 1.8 mi WSW 4.6 mph - 0.10 in Rain Heavy Rain
7:34 PM 64.4 °F 62.6 °F 94% 29.78 in 2.0 mi NNW 8.1 mph - 0.42 in Rain Heavy Rain
7:51 PM 64.4 °F 62.6 °F 94% 29.79 in 3.0 mi NW 8.1 mph - 0.49 in Rain Rain
7:54 PM 64.9 °F 63.0 °F 93% 29.76 in 4.0 mi NNW 9.2 mph - 0.50 in Rain Rain
8:06 PM 64.4 °F 62.6 °F 94% 29.79 in 3.0 mi NW 3.5 mph - 0.05 in Rain Rain
8:16 PM 64.4 °F 62.6 °F 94% 29.80 in 4.0 mi NW 3.5 mph - 0.07 in Rain Rain
8:25 PM 64.4 °F 62.6 °F 94% 29.81 in 5.0 mi NW 6.9 mph - 0.09 in Rain Light Rain
8:43 PM 64.4 °F 62.6 °F 94% 29.80 in 7.0 mi NNW 5.8 mph - 0.11 in Rain Light Rain
8:54 PM 64.9 °F 62.1 °F 90% 29.78 in 10.0 mi NNW 5.8 mph - 0.11 in Rain Light Rain
9:54 PM 64.9 °F 62.1 °F 90% 29.78 in 7.0 mi Calm Calm - 0.03 in Rain Light Rain
10:54 PM 64.0 °F 62.1 °F 93% 29.77 in 10.0 mi Calm Calm - 0.01 in   Overcast
11:02 PM 64.4 °F 62.6 °F 94% 29.80 in 10.0 mi Calm Calm - N/A   Overcast
11:54 PM 64.0 °F 62.1 °F 93% 29.76 in 10.0 mi NNE 3.5 mph - N/A   Overcast